| time (UTC) | temp C | wind direction | speed KPH | gust KPH | rain 1hr cm | rain 24hr cm | rain mn cm | humidity % | barometer mb |
| 20260502183419 | 6 | 288 | 12.9 | 27.4 | 0.00 | 0.00 | 0.00 | 32 | 1016.7 |
| 20260502182914 | 6 | 265 | 12.9 | 24.1 | 0.00 | 0.00 | 0.00 | 32 | 1016.9 |
| 20260502182410 | 6 | 288 | 17.7 | 29.0 | 0.00 | 0.00 | 0.00 | 32 | 1016.8 |
| 20260502181906 | 6 | 278 | 6.4 | 19.3 | 0.00 | 0.00 | 0.00 | 34 | 1016.6 |
| 20260502181405 | 6 | 348 | 16.1 | 30.6 | 0.00 | 0.00 | 0.00 | 35 | 1016.9 |
| 20260502180903 | 6 | 2 | 9.7 | 11.3 | 0.00 | 0.00 | 0.00 | 36 | 1016.6 |
| 20260502180400 | 5 | 349 | 11.3 | 17.7 | 0.00 | 0.00 | 0.00 | 36 | 1016.8 |
| 20260502170324 | 5 | 355 | 17.7 | 25.7 | 0.00 | 0.00 | 0.00 | 35 | 1017.2 |
| 20260502164312 | 4 | 282 | 8.0 | 24.1 | 0.00 | 0.00 | 0.00 | 39 | 1017.3 |
| 20260502163808 | 5 | 333 | 22.5 | 32.2 | 0.00 | 0.00 | 0.00 | 39 | 1017.5 |
| 20260502163304 | 5 | 277 | 20.9 | 24.1 | 0.00 | 0.00 | 0.00 | 39 | 1017.2 |
| 20260502162801 | 5 | 282 | 9.7 | 35.4 | 0.00 | 0.00 | 0.00 | 41 | 1017.2 |
| 20260502162258 | 5 | 264 | 9.7 | 20.9 | 0.00 | 0.00 | 0.00 | 38 | 1017.5 |
| 20260502161755 | 4 | 330 | 24.1 | 29.0 | 0.00 | 0.00 | 0.00 | 40 | 1017.5 |
| 20260502161251 | 5 | 304 | 6.4 | 19.3 | 0.00 | 0.00 | 0.00 | 41 | 1017.5 |
| 20260502160749 | 5 | 283 | 14.5 | 24.1 | 0.00 | 0.00 | 0.00 | 41 | 1017.5 |
| 20260502160248 | 5 | 295 | 17.7 | 27.4 | 0.00 | 0.00 | 0.00 | 41 | 1017.5 |
| 20260502152217 | 3 | 257 | 11.3 | 24.1 | 0.00 | 0.00 | 0.00 | 46 | 1017.8 |
| 20260502151715 | 3 | 246 | 9.7 | 20.9 | 0.00 | 0.00 | 0.00 | 46 | 1017.5 |
| 20260502151212 | 3 | 257 | 11.3 | 20.9 | 0.00 | 0.00 | 0.00 | 47 | 1017.8 |
| 20260502150709 | 4 | 243 | 9.7 | 29.0 | 0.00 | 0.00 | 0.00 | 49 | 1017.6 |
| 20260502150206 | 3 | 267 | 9.7 | 12.9 | 0.00 | 0.00 | 0.00 | 50 | 1017.8 |
| 20260502140129 | 2 | 259 | 6.4 | 16.1 | 0.00 | 0.00 | 0.00 | 55 | 1018.0 |
| 20260502130554 | 1 | 297 | 4.8 | 9.7 | 0.00 | 0.00 | 0.00 | 59 | 1018.3 |
| 20260502123538 | 0 | 230 | 4.8 | 12.9 | 0.00 | 0.00 | 0.00 | 66 | 1018.3 |
| 20260502123034 | 0 | 261 | 9.7 | 19.3 | 0.00 | 0.00 | 0.00 | 67 | 1018.2 |
| 20260502122531 | 0 | 287 | 8.0 | 14.5 | 0.00 | 0.00 | 0.00 | 68 | 1018.5 |
| 20260502122028 | 0 | 284 | 9.7 | 11.3 | 0.00 | 0.00 | 0.00 | 71 | 1018.2 |
| 20260502121525 | 0 | 276 | 3.2 | 17.7 | 0.00 | 0.00 | 0.00 | 72 | 1018.3 |
| 20260502121023 | 0 | 251 | 9.7 | 14.5 | 0.00 | 0.00 | 0.00 | 74 | 1018.3 |
| 20260502120519 | 0 | 241 | 0.0 | 4.8 | 0.00 | 0.00 | 0.00 | 75 | 1018.2 |
| 20260502115514 | 0 | 237 | 8.0 | 9.7 | 0.00 | 0.00 | 0.00 | 76 | 1018.3 |
| 20260502115009 | 0 | 274 | 6.4 | 8.0 | 0.00 | 0.00 | 0.00 | 76 | 1018.5 |
| 20260502114506 | -1 | 225 | 0.0 | 8.0 | 0.00 | 0.00 | 0.00 | 77 | 1018.3 |
| 20260502114003 | -1 | 261 | 9.7 | 9.7 | 0.00 | 0.00 | 0.00 | 79 | 1018.1 |
| 20260502113500 | -1 | 285 | 6.4 | 6.4 | 0.00 | 0.00 | 0.00 | 78 | 1018.2 |
| 20260502112959 | -1 | 244 | 6.4 | 9.7 | 0.00 | 0.00 | 0.00 | 77 | 1018.1 |
| 20260502112456 | -1 | 290 | 3.2 | 6.4 | 0.00 | 0.00 | 0.00 | 78 | 1018.1 |
| 20260502111954 | -1 | 256 | 6.4 | 6.4 | 0.00 | 0.00 | 0.00 | 78 | 1018.1 |
| 20260502111451 | -1 | 261 | 3.2 | 6.4 | 0.00 | 0.00 | 0.00 | 79 | 1018.1 |
| 20260502110948 | -1 | 182 | 0.0 | 4.8 | 0.00 | 0.00 | 0.00 | 80 | 1018.2 |
| 20260502110446 | -2 | 199 | 3.2 | 3.2 | 0.00 | 0.00 | 0.00 | 82 | 1018.1 |
| 20260502105943 | -2 | 151 | 0.0 | 3.2 | 0.00 | 0.00 | 0.00 | 83 | 1018.0 |
| 20260502105440 | -2 | 150 | 3.2 | 4.8 | 0.00 | 0.00 | 0.00 | 84 | 1018.2 |
| 20260502104938 | -2 | 154 | 3.2 | 6.4 | 0.00 | 0.00 | 0.00 | 84 | 1017.9 |
| 20260502104435 | -2 | 132 | 0.0 | 3.2 | 0.00 | 0.00 | 0.00 | 85 | 1017.9 |
| 20260502103932 | -2 | 155 | 3.2 | 3.2 | 0.00 | 0.00 | 0.00 | 85 | 1018.2 |
| 20260502103430 | -3 | 167 | 3.2 | 4.8 | 0.00 | 0.00 | 0.00 | 86 | 1018.2 |
| 20260502102927 | -3 | 168 | 3.2 | 3.2 | 0.00 | 0.00 | 0.00 | 86 | 1018.1 |
| 20260502102423 | -2 | 178 | 3.2 | 3.2 | 0.00 | 0.00 | 0.00 | 85 | 1018.1 |
| 20260502101920 | -2 | 165 | 1.6 | 3.2 | 0.00 | 0.00 | 0.00 | 85 | 1018.1 |
| 20260502101419 | -2 | 146 | 3.2 | 3.2 | 0.00 | 0.00 | 0.00 | 85 | 1018.2 |
| 20260502100917 | -3 | 147 | 0.0 | 3.2 | 0.00 | 0.00 | 0.00 | 86 | 1018.2 |
| 20260502100416 | -3 | 157 | 0.0 | 1.6 | 0.00 | 0.00 | 0.00 | 85 | 1017.9 |
| 20260502091349 | -3 | 27 | 0.0 | 1.6 | 0.00 | 0.00 | 0.00 | 89 | 1018.0 |
| 20260502090847 | -3 | 46 | 0.0 | 3.2 | 0.00 | 0.00 | 0.00 | 88 | 1017.8 |
| 20260502090344 | -2 | 0 | 1.6 | 3.2 | 0.00 | 0.00 | 0.00 | 87 | 1018.1 |
| 20260502071239 | -2 | 143 | 3.2 | 4.8 | 0.00 | 0.00 | 0.00 | 87 | 1017.9 |
| 20260502070737 | -2 | 155 | 3.2 | 3.2 | 0.00 | 0.00 | 0.00 | 87 | 1018.1 |
| 20260502070234 | -2 | 153 | 3.2 | 3.2 | 0.00 | 0.00 | 0.00 | 88 | 1018.1 |
| 20260502065733 | -2 | 190 | 4.8 | 4.8 | 0.00 | 0.00 | 0.00 | 88 | 1018.0 |
| 20260502065230 | -2 | 189 | 3.2 | 4.8 | 0.00 | 0.00 | 0.00 | 87 | 1017.9 |
| 20260502064729 | -2 | 145 | 3.2 | 4.8 | 0.00 | 0.00 | 0.00 | 85 | 1018.0 |
| 20260502064226 | -1 | 177 | 3.2 | 3.2 | 0.00 | 0.00 | 0.00 | 83 | 1017.6 |
| 20260502063723 | -2 | 123 | 3.2 | 3.2 | 0.00 | 0.00 | 0.00 | 84 | 1017.9 |
| 20260502063221 | -2 | 120 | 3.2 | 3.2 | 0.00 | 0.00 | 0.00 | 85 | 1018.0 |
| 20260502062718 | -2 | 126 | 1.6 | 3.2 | 0.00 | 0.00 | 0.00 | 85 | 1017.9 |
| 20260502062216 | -1 | 141 | 1.6 | 3.2 | 0.00 | 0.00 | 0.00 | 84 | 1017.9 |
| 20260502061714 | -1 | 129 | 0.0 | 3.2 | 0.00 | 0.00 | 0.00 | 83 | 1018.0 |
| 20260502061211 | -1 | 256 | 0.0 | 0.0 | 0.00 | 0.00 | 0.00 | 84 | 1018.2 |
| 20260502060706 | -2 | 79 | 0.0 | 1.6 | 0.00 | 0.00 | 0.00 | 85 | 1018.1 |
| 20260502060203 | -2 | 64 | 0.0 | 1.6 | 0.00 | 0.00 | 0.00 | 85 | 1017.9 |
| 20260502055701 | -1 | 129 | 0.0 | 3.2 | 0.00 | 0.00 | 0.00 | 84 | 1018.0 |
| 20260502055158 | -1 | 146 | 0.0 | 3.2 | 0.00 | 0.00 | 0.00 | 83 | 1017.8 |
| 20260502054657 | -1 | 206 | 0.0 | 1.6 | 0.00 | 0.00 | 0.00 | 83 | 1018.0 |
| 20260502054154 | -1 | 126 | 0.0 | 0.0 | 0.00 | 0.00 | 0.00 | 83 | 1018.0 |
| 20260502053651 | -1 | 264 | 3.2 | 3.2 | 0.00 | 0.00 | 0.00 | 84 | 1018.1 |
| 20260502053148 | -1 | 65 | 0.0 | 0.0 | 0.00 | 0.00 | 0.00 | 83 | 1018.1 |
| 20260502052647 | -1 | 282 | 0.0 | 1.6 | 0.00 | 0.00 | 0.00 | 82 | 1017.9 |
| 20260502052144 | -1 | 151 | 0.0 | 3.2 | 0.00 | 0.00 | 0.00 | 81 | 1017.8 |
| 20260502051642 | -1 | 245 | 0.0 | 3.2 | 0.00 | 0.00 | 0.00 | 81 | 1018.0 |
| 20260502051140 | -1 | 265 | 3.2 | 3.2 | 0.00 | 0.00 | 0.00 | 82 | 1017.8 |
| 20260502050636 | -1 | 272 | 0.0 | 3.2 | 0.00 | 0.00 | 0.00 | 82 | 1017.9 |
| 20260502050133 | -1 | 252 | 3.2 | 4.8 | 0.00 | 0.00 | 0.00 | 81 | 1017.9 |
| 20260502045630 | 0 | 303 | 3.2 | 3.2 | 0.00 | 0.00 | 0.00 | 81 | 1017.9 |
| 20260502045127 | 0 | 271 | 3.2 | 3.2 | 0.00 | 0.00 | 0.00 | 81 | 1017.6 |
| 20260502044623 | -1 | 279 | 3.2 | 4.8 | 0.00 | 0.00 | 0.00 | 82 | 1017.5 |
| 20260502044120 | -1 | 252 | 3.2 | 4.8 | 0.00 | 0.00 | 0.00 | 82 | 1017.5 |
| 20260502043618 | -1 | 267 | 3.2 | 3.2 | 0.00 | 0.00 | 0.00 | 82 | 1017.6 |
| 20260502043115 | 0 | 315 | 3.2 | 6.4 | 0.00 | 0.00 | 0.00 | 81 | 1017.6 |
| 20260502042614 | 0 | 26 | 0.0 | 3.2 | 0.00 | 0.00 | 0.00 | 80 | 1017.9 |
| 20260502042112 | 0 | 311 | 1.6 | 6.4 | 0.00 | 0.00 | 0.00 | 80 | 1017.6 |
| 20260502041610 | 0 | 240 | 0.0 | 3.2 | 0.00 | 0.00 | 0.00 | 81 | 1017.8 |
| 20260502041107 | 0 | 295 | 0.0 | 4.8 | 0.00 | 0.00 | 0.00 | 81 | 1017.9 |
| 20260502040603 | 0 | 30 | 0.0 | 3.2 | 0.00 | 0.00 | 0.00 | 80 | 1017.6 |
| 20260502040101 | 0 | 274 | 0.0 | 3.2 | 0.00 | 0.00 | 0.00 | 79 | 1017.9 |
| 20260502035556 | 0 | 267 | 3.2 | 9.7 | 0.00 | 0.00 | 0.00 | 78 | 1017.8 |
| 20260502035054 | 0 | 296 | 3.2 | 4.8 | 0.00 | 0.00 | 0.00 | 79 | 1018.0 |
| 20260502034551 | 0 | 327 | 3.2 | 4.8 | 0.00 | 0.00 | 0.00 | 79 | 1017.8 |
| 20260502034050 | 0 | 264 | 6.4 | 9.7 | 0.00 | 0.00 | 0.00 | 78 | 1017.8 |
| 20260502033548 | 0 | 291 | 4.8 | 8.0 | 0.00 | 0.00 | 0.00 | 78 | 1017.9 |
| 20260502033045 | 0 | 277 | 4.8 | 6.4 | 0.00 | 0.00 | 0.00 | 77 | 1017.9 |
| 20260502032540 | 0 | 272 | 4.8 | 9.7 | 0.00 | 0.00 | 0.00 | 77 | 1017.6 |
| 20260502032037 | 0 | 241 | 4.8 | 8.0 | 0.00 | 0.00 | 0.00 | 78 | 1017.8 |
| 20260502031535 | 0 | 273 | 4.8 | 6.4 | 0.00 | 0.00 | 0.00 | 78 | 1018.0 |
| 20260502031033 | 0 | 295 | 6.4 | 8.0 | 0.00 | 0.00 | 0.00 | 78 | 1017.6 |
| 20260502030532 | 0 | 298 | 6.4 | 9.7 | 0.00 | 0.00 | 0.00 | 77 | 1017.8 |
| 20260502030029 | 0 | 290 | 6.4 | 9.7 | 0.00 | 0.00 | 0.00 | 76 | 1017.9 |
| 20260502025526 | 0 | 287 | 1.6 | 4.8 | 0.00 | 0.00 | 0.00 | 76 | 1017.9 |
| 20260502025024 | 0 | 282 | 6.4 | 8.0 | 0.00 | 0.00 | 0.00 | 76 | 1017.8 |
| 20260502024521 | 0 | 272 | 4.8 | 8.0 | 0.00 | 0.00 | 0.00 | 76 | 1017.9 |
| 20260502024020 | 0 | 259 | 6.4 | 8.0 | 0.00 | 0.00 | 0.00 | 76 | 1018.0 |
| 20260502023517 | 0 | 280 | 3.2 | 6.4 | 0.00 | 0.00 | 0.00 | 75 | 1017.9 |
| 20260502023014 | 0 | 287 | 4.8 | 11.3 | 0.00 | 0.00 | 0.00 | 74 | 1018.0 |
| 20260502022510 | 0 | 255 | 3.2 | 9.7 | 0.00 | 0.00 | 0.00 | 73 | 1017.8 |
| 20260502022008 | 0 | 267 | 9.7 | 12.9 | 0.00 | 0.00 | 0.00 | 73 | 1017.9 |
| 20260502021505 | 0 | 290 | 1.6 | 9.7 | 0.00 | 0.00 | 0.00 | 74 | 1017.8 |
| 20260502021002 | 0 | 339 | 3.2 | 6.4 | 0.00 | 0.00 | 0.00 | 74 | 1017.8 |
| 20260502020500 | 0 | 293 | 3.2 | 11.3 | 0.00 | 0.00 | 0.00 | 73 | 1018.1 |
| 20260502015956 | 0 | 300 | 3.2 | 6.4 | 0.00 | 0.00 | 0.00 | 72 | 1017.8 |
| 20260502015454 | 1 | 245 | 3.2 | 6.4 | 0.00 | 0.00 | 0.00 | 72 | 1017.9 |
| 20260502014950 | 1 | 267 | 3.2 | 9.7 | 0.00 | 0.00 | 0.00 | 71 | 1017.9 |
| 20260502014447 | 0 | 269 | 4.8 | 6.4 | 0.00 | 0.00 | 0.00 | 71 | 1017.8 |
| 20260502013944 | 0 | 266 | 6.4 | 8.0 | 0.00 | 0.00 | 0.00 | 72 | 1017.6 |
| 20260502013440 | 0 | 334 | 6.4 | 12.9 | 0.00 | 0.00 | 0.00 | 71 | 1017.9 |
| 20260502012936 | 1 | 352 | 3.2 | 11.3 | 0.00 | 0.00 | 0.00 | 70 | 1017.8 |
| 20260502012434 | 1 | 290 | 6.4 | 9.7 | 0.00 | 0.00 | 0.00 | 69 | 1017.8 |
| 20260502011931 | 1 | 58 | 3.2 | 6.4 | 0.00 | 0.00 | 0.00 | 68 | 1017.6 |
| 20260502011427 | 1 | 269 | 9.7 | 12.9 | 0.00 | 0.00 | 0.00 | 67 | 1017.5 |
| 20260502010924 | 1 | 284 | 11.3 | 17.7 | 0.00 | 0.00 | 0.00 | 67 | 1017.6 |
| 20260502010421 | 1 | 302 | 9.7 | 12.9 | 0.00 | 0.00 | 0.00 | 67 | 1017.3 |
| 20260502005917 | 1 | 300 | 3.2 | 16.1 | 0.00 | 0.00 | 0.00 | 67 | 1017.5 |
| 20260502005415 | 1 | 0 | 9.7 | 11.3 | 0.00 | 0.00 | 0.00 | 67 | 1017.5 |
| 20260502004914 | 1 | 326 | 8.0 | 16.1 | 0.00 | 0.00 | 0.00 | 67 | 1017.5 |
| 20260502004409 | 1 | 288 | 8.0 | 12.9 | 0.00 | 0.00 | 0.00 | 66 | 1017.3 |
| 20260502003906 | 1 | 300 | 4.8 | 11.3 | 0.00 | 0.00 | 0.00 | 66 | 1017.4 |
| 20260502003404 | 1 | 283 | 9.7 | 16.1 | 0.00 | 0.00 | 0.00 | 65 | 1017.4 |
| 20260502002859 | 1 | 21 | 3.2 | 12.9 | 0.00 | 0.00 | 0.00 | 64 | 1017.3 |
| 20260502002357 | 1 | 271 | 4.8 | 14.5 | 0.00 | 0.00 | 0.00 | 64 | 1017.4 |
| 20260502001854 | 1 | 295 | 14.5 | 16.1 | 0.00 | 0.00 | 0.00 | 64 | 1017.2 |
| 20260502001352 | 1 | 289 | 3.2 | 11.3 | 0.00 | 0.00 | 0.00 | 64 | 1017.0 |
| 20260502000849 | 1 | 294 | 11.3 | 11.3 | 0.00 | 0.00 | 0.00 | 64 | 1017.0 |
| 20260502000348 | 1 | 271 | 8.0 | 14.5 | 0.00 | 0.00 | 0.00 | 63 | 1017.0 |
| 20260501235843 | 1 | 290 | 6.4 | 12.9 | 0.00 | 0.00 | 0.00 | 63 | 1017.1 |
| 20260501235339 | 1 | 280 | 6.4 | 9.7 | 0.00 | 0.00 | 0.00 | 63 | 1016.9 |
| 20260501234834 | 1 | 299 | 8.0 | 11.3 | 0.00 | 0.00 | 0.00 | 62 | 1016.8 |
| 20260501234332 | 1 | 265 | 17.7 | 22.5 | 0.00 | 0.00 | 0.00 | 60 | 1016.7 |
| 20260501233830 | 2 | 299 | 6.4 | 9.7 | 0.00 | 0.00 | 0.00 | 61 | 1017.0 |
| 20260501233327 | 1 | 290 | 6.4 | 14.5 | 0.00 | 0.00 | 0.00 | 60 | 1016.9 |
| 20260501232823 | 2 | 321 | 11.3 | 14.5 | 0.00 | 0.00 | 0.00 | 61 | 1017.0 |
| 20260501232320 | 2 | 296 | 6.4 | 9.7 | 0.00 | 0.00 | 0.00 | 61 | 1016.8 |
| 20260501231818 | 2 | 316 | 16.1 | 17.7 | 0.00 | 0.00 | 0.00 | 60 | 1017.0 |
| 20260501231316 | 2 | 270 | 16.1 | 16.1 | 0.00 | 0.00 | 0.00 | 59 | 1017.0 |
| 20260501230814 | 2 | 1 | 11.3 | 12.9 | 0.00 | 0.00 | 0.00 | 58 | 1016.6 |
| 20260501230312 | 2 | 348 | 9.7 | 16.1 | 0.00 | 0.00 | 0.00 | 56 | 1016.6 |
| 20260501225809 | 2 | 284 | 1.6 | 17.7 | 0.00 | 0.00 | 0.00 | 57 | 1016.9 |
| 20260501225307 | 2 | 335 | 11.3 | 14.5 | 0.00 | 0.00 | 0.00 | 57 | 1016.7 |
| 20260501224803 | 2 | 9 | 6.4 | 17.7 | 0.00 | 0.00 | 0.00 | 58 | 1016.8 |
| 20260501224300 | 2 | 1 | 8.0 | 17.7 | 0.00 | 0.00 | 0.00 | 56 | 1016.8 |
| 20260501223756 | 2 | 335 | 12.9 | 17.7 | 0.00 | 0.00 | 0.00 | 55 | 1016.8 |
| 20260501223253 | 2 | 27 | 4.8 | 11.3 | 0.00 | 0.00 | 0.00 | 56 | 1016.6 |
| 20260501222749 | 2 | 293 | 9.7 | 20.9 | 0.00 | 0.00 | 0.00 | 56 | 1016.7 |
| 20260501222246 | 2 | 292 | 6.4 | 16.1 | 0.00 | 0.00 | 0.00 | 57 | 1016.6 |
| 20260501221743 | 2 | 329 | 11.3 | 19.3 | 0.00 | 0.00 | 0.00 | 56 | 1016.8 |
| 20260501221240 | 2 | 20 | 12.9 | 24.1 | 0.00 | 0.00 | 0.00 | 57 | 1016.7 |
| 20260501220738 | 2 | 320 | 6.4 | 16.1 | 0.00 | 0.00 | 0.00 | 58 | 1016.6 |
| 20260501220235 | 2 | 284 | 6.4 | 17.7 | 0.00 | 0.00 | 0.00 | 59 | 1016.6 |
| 20260501215732 | 2 | 275 | 9.7 | 24.1 | 0.00 | 0.00 | 0.00 | 58 | 1016.5 |
| 20260501215227 | 2 | 285 | 6.4 | 19.3 | 0.00 | 0.00 | 0.00 | 59 | 1016.5 |
| 20260501214722 | 2 | 278 | 9.7 | 19.3 | 0.00 | 0.00 | 0.00 | 59 | 1016.5 |
| 20260501214219 | 2 | 309 | 8.0 | 22.5 | 0.00 | 0.00 | 0.00 | 58 | 1016.3 |
| 20260501213715 | 2 | 10 | 9.7 | 16.1 | 0.00 | 0.00 | 0.00 | 57 | 1016.4 |
| 20260501213211 | 2 | 331 | 17.7 | 22.5 | 0.00 | 0.00 | 0.00 | 56 | 1016.3 |
| 20260501212708 | 3 | 268 | 12.9 | 24.1 | 0.00 | 0.00 | 0.00 | 55 | 1015.9 |
| 20260501212204 | 3 | 332 | 12.9 | 19.3 | 0.00 | 0.00 | 0.00 | 54 | 1016.1 |
| 20260501211701 | 3 | 280 | 20.9 | 25.7 | 0.00 | 0.00 | 0.00 | 54 | 1016.1 |
| 20260501211158 | 3 | 357 | 9.7 | 19.3 | 0.00 | 0.00 | 0.00 | 54 | 1015.9 |
| 20260501210655 | 3 | 299 | 14.5 | 17.7 | 0.00 | 0.00 | 0.00 | 54 | 1015.9 |
| 20260501210152 | 3 | 284 | 12.9 | 20.9 | 0.00 | 0.00 | 0.00 | 52 | 1015.8 |
| 20260501205648 | 3 | 353 | 6.4 | 19.3 | 0.00 | 0.00 | 0.00 | 50 | 1015.8 |
| 20260501205146 | 3 | 7 | 12.9 | 29.0 | 0.00 | 0.00 | 0.00 | 48 | 1015.8 |
| 20260501204642 | 3 | 307 | 8.0 | 14.5 | 0.00 | 0.00 | 0.00 | 51 | 1015.9 |
| 20260501204138 | 3 | 19 | 14.5 | 16.1 | 0.00 | 0.00 | 0.00 | 53 | 1015.9 |
| 20260501203635 | 3 | 22 | 8.0 | 14.5 | 0.00 | 0.00 | 0.00 | 52 | 1015.8 |
| 20260501203133 | 3 | 310 | 3.2 | 22.5 | 0.00 | 0.00 | 0.00 | 54 | 1015.9 |
| 20260501202629 | 3 | 316 | 3.2 | 11.3 | 0.00 | 0.00 | 0.00 | 53 | 1015.9 |
| 20260501202126 | 3 | 17 | 8.0 | 17.7 | 0.00 | 0.00 | 0.00 | 53 | 1015.9 |
| 20260501201623 | 3 | 33 | 9.7 | 27.4 | 0.00 | 0.00 | 0.00 | 53 | 1015.8 |
| 20260501201119 | 3 | 1 | 9.7 | 11.3 | 0.00 | 0.00 | 0.00 | 54 | 1015.8 |
| 20260501200617 | 3 | 294 | 6.4 | 9.7 | 0.00 | 0.00 | 0.00 | 52 | 1015.8 |
| 20260501200114 | 3 | 298 | 4.8 | 12.9 | 0.00 | 0.00 | 0.00 | 54 | 1015.9 |
| 20260501195612 | 3 | 338 | 9.7 | 19.3 | 0.00 | 0.00 | 0.00 | 53 | 1015.9 |
| 20260501195107 | 3 | 333 | 4.8 | 20.9 | 0.00 | 0.00 | 0.00 | 53 | 1015.8 |
| 20260501194603 | 3 | 331 | 4.8 | 20.9 | 0.00 | 0.00 | 0.00 | 53 | 1016.1 |
| 20260501194058 | 3 | 20 | 12.9 | 16.1 | 0.00 | 0.00 | 0.00 | 54 | 1015.6 |
| 20260501193556 | 3 | 34 | 11.3 | 12.9 | 0.00 | 0.00 | 0.00 | 55 | 1015.9 |
| 20260501193055 | 3 | 345 | 6.4 | 12.9 | 0.00 | 0.00 | 0.00 | 55 | 1015.7 |
| 20260501192551 | 3 | 1 | 11.3 | 14.5 | 0.00 | 0.00 | 0.00 | 56 | 1015.7 |
| 20260501192049 | 3 | 359 | 20.9 | 24.1 | 0.00 | 0.00 | 0.00 | 54 | 1015.8 |
| 20260501191545 | 3 | 356 | 12.9 | 19.3 | 0.00 | 0.00 | 0.00 | 57 | 1015.8 |
| 20260501191043 | 3 | 18 | 20.9 | 25.7 | 0.00 | 0.00 | 0.00 | 55 | 1015.8 |
| 20260501190538 | 3 | 83 | 3.2 | 14.5 | 0.00 | 0.00 | 0.00 | 57 | 1015.9 |
| 20260501190034 | 2 | 347 | 19.3 | 24.1 | 0.00 | 0.00 | 0.00 | 58 | 1015.9 |
| 20260501185531 | 2 | 26 | 0.0 | 9.7 | 0.00 | 0.00 | 0.00 | 64 | 1015.5 |
| 20260501185026 | 2 | 80 | 4.8 | 9.7 | 0.00 | 0.00 | 0.00 | 65 | 1015.8 |
| 20260501184523 | 2 | 74 | 4.8 | 8.0 | 0.00 | 0.00 | 0.00 | 66 | 1015.7 |
| 20260501184023 | 2 | 94 | 6.4 | 9.7 | 0.00 | 0.00 | 0.00 | 67 | 1015.9 |